When you browse on this site, cookies collect data to enhance your experience and personalize the content and advertising you see.
Visit our Privacy Policy to learn more. By continuing to use the site, you agree to this use of cookies and data.
  • In Hungary
  • List of Countries
  • For 7 days
  • Water Temperature
  • Weather Map
  • News
  • Weather Widgets
  • user-avatar
    Login

    Hourly Weather Rotenburg

    Today, 7 December, Saturday

    Time Temperature Precipitation Wind Pressure Humidity
    00:00 +6°C° 0.3 mm 8 mps 748 mmHg 89%
    01:00 +6°C° 0.3 mm 8 mps 747 mmHg 90%
    02:00 +6°C° 0.9 mm 7 mps 747 mmHg 90%
    03:00 +6°C° 0.9 mm 7 mps 747 mmHg 91%
    04:00 +6°C° 0.9 mm 7 mps 747 mmHg 92%
    05:00 +6°C° 0.1 mm 7 mps 748 mmHg 90%
    06:00 +8°C° 0.1 mm 7 mps 749 mmHg 88%
    07:00 +8°C° 0.1 mm 7 mps 750 mmHg 86%
    08:00 +8°C° 0 mm 7 mps 751 mmHg 86%
    09:00 +8°C° 0 mm 7 mps 751 mmHg 86%
    10:00 +8°C° 0 mm 7 mps 752 mmHg 85%
    11:00 +8°C° 0.1 mm 7 mps 752 mmHg 85%
    12:00 +8°C° 0.1 mm 7 mps 753 mmHg 84%
    13:00 +8°C° 0.1 mm 7 mps 753 mmHg 83%
    14:00 +8°C° 0.1 mm 7 mps 753 mmHg 84%
    15:00 +8°C° 0.1 mm 6 mps 754 mmHg 84%
    16:00 +7°C° 0.1 mm 6 mps 754 mmHg 85%
    17:00 +7°C° 0.1 mm 6 mps 754 mmHg 86%
    18:00 +7°C° 0.1 mm 6 mps 754 mmHg 88%
    19:00 +5°C° 0.1 mm 6 mps 755 mmHg 89%
    20:00 +7°C° 0 mm 6 mps 755 mmHg 89%
    21:00 +7°C° 0 mm 6 mps 755 mmHg 88%
    22:00 +7°C° 0 mm 6 mps 754 mmHg 87%
    23:00 +7°C° 0 mm 6 mps 754 mmHg 88%

    Tomorrow, 8 December, Sunday

    Time Temperature Precipitation Wind Pressure Humidity
    00:00 +5°C° 0 mm 6 mps 754 mmHg 88%
    01:00 +5°C° 0 mm 6 mps 754 mmHg 89%
    02:00 +5°C° 0 mm 6 mps 753 mmHg 89%
    03:00 +5°C° 0 mm 7 mps 753 mmHg 89%
    04:00 +5°C° 0 mm 7 mps 752 mmHg 89%
    05:00 +5°C° 0 mm 7 mps 751 mmHg 87%
    06:00 +5°C° 0 mm 7 mps 750 mmHg 85%
    07:00 +5°C° 0 mm 8 mps 750 mmHg 83%
    08:00 +5°C° 0.1 mm 8 mps 749 mmHg 84%
    09:00 +6°C° 0.1 mm 8 mps 748 mmHg 85%
    10:00 +6°C° 0.1 mm 9 mps 747 mmHg 85%
    11:00 +6°C° 0.3 mm 9 mps 746 mmHg 85%
    12:00 +7°C° 0.3 mm 9 mps 745 mmHg 85%
    13:00 +8°C° 0.3 mm 9 mps 744 mmHg 85%
    14:00 +7°C° 0.1 mm 8 mps 744 mmHg 83%
    15:00 +8°C° 0.1 mm 7 mps 744 mmHg 80%
    16:00 +7°C° 0.1 mm 6 mps 744 mmHg 77%
    17:00 +7°C° 0 mm 6 mps 744 mmHg 79%
    18:00 +5°C° 0 mm 6 mps 744 mmHg 81%
    19:00 +4°C° 0 mm 6 mps 745 mmHg 82%
    20:00 +4°C° 0 mm 6 mps 744 mmHg 83%
    21:00 +4°C° 0 mm 6 mps 744 mmHg 85%
    22:00 +4°C° 0 mm 7 mps 743 mmHg 86%
    23:00 +4°C° 0.1 mm 7 mps 743 mmHg 85%

    Day after tomorrow, 9 December, Monday

    Time Temperature Precipitation Wind Pressure Humidity
    00:00 +4°C° 0.1 mm 7 mps 743 mmHg 84%
    01:00 +4°C° 0.1 mm 7 mps 743 mmHg 83%
    02:00 +4°C° 0 mm 7 mps 742 mmHg 82%
    03:00 +4°C° 0 mm 7 mps 742 mmHg 81%
    04:00 +4°C° 0 mm 7 mps 741 mmHg 81%
    05:00 +4°C° 0.1 mm 8 mps 741 mmHg 81%
    06:00 +4°C° 0.1 mm 8 mps 740 mmHg 81%
    07:00 +3°C° 0.1 mm 9 mps 739 mmHg 82%
    08:00 +4°C° 1.1 mm 8 mps 739 mmHg 84%
    09:00 +2°C° 1.1 mm 8 mps 739 mmHg 87%
    10:00 +2°C° 1.1 mm 8 mps 739 mmHg 89%
    11:00 +4°C° 0.2 mm 8 mps 739 mmHg 85%
    12:00 +4°C° 0.2 mm 7 mps 739 mmHg 82%
    13:00 +5°C° 0.2 mm 7 mps 739 mmHg 78%
    14:00 +5°C° 0 mm 7 mps 740 mmHg 79%
    15:00 +4°C° 0 mm 6 mps 740 mmHg 81%
    16:00 +4°C° 0 mm 6 mps 740 mmHg 83%
    17:00 +4°C° 0.1 mm 6 mps 741 mmHg 84%
    18:00 +4°C° 0.1 mm 6 mps 742 mmHg 85%
    19:00 +4°C° 0.1 mm 6 mps 743 mmHg 86%
    20:00 +3°C° 0 mm 5 mps 744 mmHg 87%
    21:00 +3°C° 0 mm 5 mps 745 mmHg 88%
    22:00 +4°C° 0 mm 4 mps 746 mmHg 89%
    23:00 +3°C° 0 mm 5 mps 747 mmHg 84%

    10 December, Tuesday

    Time Temperature Precipitation Wind Pressure Humidity
    00:00 +3°C° 0 mm 6 mps 748 mmHg 79%
    01:00 +3°C° 0 mm 7 mps 750 mmHg 74%
    02:00 +2°C° 0 mm 8 mps 751 mmHg 75%
    03:00 +2°C° 0 mm 8 mps 752 mmHg 76%
    04:00 +2°C° 0 mm 9 mps 754 mmHg 77%
    05:00 +1°C° 0.1 mm 8 mps 755 mmHg 74%
    06:00 +1°C° 0.1 mm 6 mps 757 mmHg 71%
    07:00 0°C° 0.1 mm 5 mps 759 mmHg 68%
    08:00 0°C° 0 mm 4 mps 760 mmHg 69%
    09:00 +1°C° 0 mm 3 mps 761 mmHg 69%
    10:00 +2°C° 0 mm 2 mps 762 mmHg 69%
    11:00 +3°C° 0 mm 2 mps 762 mmHg 69%
    12:00 +4°C° 0 mm 2 mps 763 mmHg 68%
    13:00 +5°C° 0 mm 2 mps 763 mmHg 67%
    14:00 +4°C° 0 mm 2 mps 764 mmHg 72%
    15:00 +3°C° 0 mm 2 mps 764 mmHg 77%
    16:00 +3°C° 0 mm 2 mps 764 mmHg 81%
    17:00 +3°C° 0 mm 2 mps 764 mmHg 83%
    18:00 +1°C° 0 mm 3 mps 763 mmHg 85%
    19:00 +1°C° 0 mm 3 mps 763 mmHg 87%
    20:00 0°C° 0 mm 4 mps 763 mmHg 85%
    21:00 0°C° 0 mm 4 mps 762 mmHg 83%
    22:00 0°C° 0 mm 5 mps 762 mmHg 81%
    23:00 0°C° 0 mm 5 mps 761 mmHg 79%

    11 December, Wednesday

    Time Temperature Precipitation Wind Pressure Humidity
    00:00 -1°C° 0 mm 6 mps 760 mmHg 77%
    01:00 -1°C° 0 mm 6 mps 759 mmHg 74%
    02:00 0°C° 0 mm 7 mps 759 mmHg 73%
    03:00 0°C° 0 mm 7 mps 758 mmHg 72%
    04:00 0°C° 0 mm 7 mps 757 mmHg 71%
    05:00 0°C° 0.4 mm 7 mps 756 mmHg 74%
    06:00 -1°C° 0.4 mm 7 mps 755 mmHg 77%
    07:00 -1°C° 0.4 mm 7 mps 755 mmHg 81%
    08:00 0°C° 0.9 mm 7 mps 755 mmHg 83%
    09:00 0°C° 0.9 mm 7 mps 755 mmHg 86%
    10:00 +1°C° 0.9 mm 6 mps 754 mmHg 89%
    11:00 +1°C° 0.9 mm 6 mps 754 mmHg 90%
    12:00 +1°C° 0.9 mm 6 mps 754 mmHg 91%
    13:00 +2°C° 0.9 mm 6 mps 754 mmHg 91%
    14:00 +2°C° 0.1 mm 5 mps 754 mmHg 91%
    15:00 +2°C° 0.1 mm 5 mps 754 mmHg 91%
    16:00 +3°C° 0.1 mm 4 mps 754 mmHg 92%
    17:00 +3°C° 0.1 mm 4 mps 754 mmHg 92%
    18:00 +3°C° 0.1 mm 4 mps 754 mmHg 93%
    19:00 +3°C° 0.1 mm 3 mps 754 mmHg 94%
    20:00 +3°C° 0 mm 3 mps 754 mmHg 94%
    21:00 +3°C° 0 mm 3 mps 754 mmHg 94%
    22:00 +3°C° 0 mm 3 mps 755 mmHg 94%
    23:00 +2°C° 0 mm 3 mps 755 mmHg 94%

    12 December, Thursday

    Time Temperature Precipitation Wind Pressure Humidity
    00:00 +2°C° 0 mm 3 mps 754 mmHg 94%
    01:00 +1°C° 0 mm 3 mps 754 mmHg 95%
    02:00 +1°C° 0 mm 3 mps 754 mmHg 94%
    03:00 0°C° 0 mm 4 mps 754 mmHg 94%
    04:00 0°C° 0 mm 4 mps 753 mmHg 93%
    05:00 0°C° 0 mm 4 mps 753 mmHg 92%
    06:00 0°C° 0 mm 5 mps 753 mmHg 91%
    07:00 0°C° 0 mm 5 mps 753 mmHg 90%
    08:00 +1°C° 0 mm 5 mps 753 mmHg 89%
    09:00 +1°C° 0 mm 5 mps 753 mmHg 88%
    10:00 +2°C° 0 mm 6 mps 753 mmHg 87%
    11:00 +2°C° 0 mm 6 mps 752 mmHg 84%
    12:00 +2°C° 0 mm 6 mps 752 mmHg 82%
    13:00 +3°C° 0 mm 6 mps 751 mmHg 80%
    14:00 +2°C° 0 mm 6 mps 751 mmHg 79%
    15:00 +2°C° 0 mm 6 mps 750 mmHg 79%
    16:00 +2°C° 0 mm 6 mps 749 mmHg 78%
    17:00 +2°C° 0 mm 6 mps 748 mmHg 79%
    18:00 +1°C° 0 mm 6 mps 747 mmHg 80%
    19:00 0°C° 0 mm 7 mps 747 mmHg 81%
    20:00 0°C° 0 mm 7 mps 746 mmHg 80%
    21:00 0°C° 0 mm 7 mps 745 mmHg 80%
    22:00 0°C° 0 mm 7 mps 744 mmHg 80%
    23:00 0°C° 0 mm 7 mps 742 mmHg 80%
    Show more